weather.gov     
National Weather Service

Terminal Aerodrome Forecast
NWS Homepage
This page is being discontinued on March 12, 2014.
The same data is available at this site. Please update your bookmarks.
Thank you, and we apologize for the inconvenience.
Please send an email to SR-SRH.Webmaster@noaa.gov with any concerns.


Current Version
Previous Version:    01  02  03  04  05  06  07  08  09  10  11  12  13  14  15  16  17  18  19  20  21  22  23  24  25  26  27  28  29  30  
   31  32  33  34  35  36  37  
[Printable]
791
FTUS43 KGRB 011100
TAFGRB
TAF
KGRB 011136Z 0112/0212 04017G25KT 5SM -SN OVC025
      TEMPO 0112/0116 2SM -SN BKN018
     FM011600 03020G30KT 6SM -SN OVC030
      TEMPO 0116/0120 2SM -SN BLSN BKN022
     FM012100 03017G28KT P6SM -SN SCT030 BKN060
     FM020100 01015G23KT P6SM SCT035 BKN070
     FM020600 35011KT P6SM SCT070 BKN120=


U.S. Dept. of Commerce
NOAA National Weather Service
1325 East West Highway
Silver Spring, MD 20910
E-mail: w-nws.webmaster@noaa.gov
Page last modified: May 16, 2007
NATIONAL WEATHER SERVICE: for Safety, for Work, for Fun - FOR LIFE